SCP
0 0 0 0 0 0 0 0 0 0 0 0 0 0 0 0 0 0 0 0 0 0 0 0 0 0 0 0 0 0 0 0 0 0 0 0 0 0 0 0 0 0 0 0
0 0 0 0 0 0 0 0 0 0 0 0 0 0 0 0 0 0 0 0 0 0 0 0 0 0 0 0 0 0 0 0 0 0 0 0 0 0 0 0 0 0 0 0
0 0 0 0 0 0 0 0 0 0 0 0 0 0 0 0 0 0 0 0 0 0 0 0 0 0 0 0 0 0 0 0 0 0 0 0 0 0 0 0 0 0 0 0
0 0 0 0 0 0 0 0 0 0 0 0 0 0 0 0 0 0 0 0 0 0 0 0 0 0 0 0 0 0 0 0 0 0 0 0 0 0 0 0 0 0 0 0
0 0 0 0 0 0 0 0 0 0 0 0 0 0 0 0 0 0 0 0 0 0 0 0 0 0 0 0 0 0 0 0 0 0 0 0 0 0 0 0 0 0 0 0
0 0 0 0 0 0 0 0 0 0 0 0 0 0 0 0 0 0 0 0 0 0 0 0 0 0 0 0 0 0 0 0 0 0 0 0 0 0 0 0 0 0 0 0
0 0 0 0 0 0 0 0 0 0 0 0 0 0 0 0 0 0 0 0 0 0 0 0 0 0 0 0 0 0 0 0 0 0 0 0 0 0 0 0 0 0 0 0
0 0 0 0 0 0 0 0 0 0 0 0 0 0 0 0 0 0 0 0 0 0 0 0 0 0 0 0 0 0 0 0 0 0 0 0 0 0 0 0 0 0 0 0
0 0 0 0 0 0 0 0 0 0 0 0 0 0 0 0 0 0 0 0 0 0 0 0 0 0 0 0 0 0 0 0 0 0 0 0 0 0 0 0 0 0 0 0
0 0 0 0 0 0 0 0 0 0 0 0 0 0 0 0 0 0 0 0 0 0 0 0 0 0 0 0 0 0 0 0 0 0 0 0 0 0 0 0 0 0 0 0
0 0 0 0 0 0 0 0 0 0 0 0 0 0 0 0 0 0 0 0 0 0 0 0 0 0 0 0 0 0 0 0 0 0 0 0 0 0 0 0 0 0 0 0
0 0 0 0 0 0 0 0 0 0 0 0 0 0 0 0 0 0 0 0 0 0 0 0 0 0 0 0 0 0 0 0 0 0 0 0 0 0 0 0 0 0 0 0
0 0 0 0 0 0 0 0 0 0 0 0 0 0 0 0 0 0 0 0 0 0 0 0 0 0 0 0 0 0 0 0 0 0 0 0 0 0 0 0 0 0 0 0
0 0 0 0 0 0 0 0 0 0 0 0 0 0 0 0 0 0 0 0 0 0 0 0 0 0 0 0 0 0 0 0 0 0 0 0 0 0 0 0 0 0 0 0
0 0 0 0 0 0 0 0 0 0 0 0 0 0 0 0 0 0 0 0 0 0 0 0 0 0 0 0 0 0 0 0 0 0 0 0 0 0 0 0 0 0 0 0
0 0 0 0 0 0 0 0 0 0 0 0 0 0 0 0 0 0 0 0 0 0 0 0 0 0 0 0 0 0 0 0 0 0 0 0 0 0 0 0 0 0 0 0
0 0 0 0 0 0 0 0 0 0 0 0 0 0 0 0 0 0 0 0 0 0 0 0 0 0 0 0 0 0 0 0 0 0 0 0 0 0 0 0 0 0 0 0
0 0 0 0 0 0 0 0 0 0 0 0 0 0 0 0 0 0 0 0 0 0 0 0 0 0 0 0 0 0 0 0 0 0 0 0 0 0 0 0 0 0 0 0
0 0 0 0 0 0 0 0 0 0 0 0 0 0 0 0 0 0 0 0 0 0 0 0 0 0 0 0 0 0 0 0 0 0 0 0 0 0 0 0 0 0 0 0
0 0 0 0 0 0 0 0 0 0 0 0 0 0 0 0 0 0 0 0 0 0 0 0 0 0 0 0 0 0 0 0 0 0 0 0 0 0 0 0 0 0 0 0
0 0 0 0 0 0 0 0 0 0 0 0 0 0 0 0 0 0 0 0 0 0 0 0 0 0 0 0 0 0 0 0 0 0 0 0 0 0 0 0 0 0 0 0
0 0 0 0 0 0 0 0 0 0 0 0 0 0 0 0 0 0 0 0 0 0 0 0 0 0 0 0 0 0 0 0 0 0 0 0 0 0 0 0 0 0 0 0
0 0 0 0 0 0 0 0 0 0 0 0 0 0 0 0 0 0 0 0 0 0 0 0 0 0 0 0 0 0 0 0 0 0 0 0 0 0 0 0 0 0 0 0
0 0 0 0 0 0 0 0 0 0 0 0 0 0 0 0 0 0 0 0 0 0 0 0 0 0 0 0 0 0 0 0 0 0 0 0 0 0 0 0 0 0 0 0
0 0 0 0 0 0 0 0 0 0 0 0 0 0 0 0 0 0 0 0 0 0 0 0 0 0 0 0 0 0 0 0 0 0 0 0 0 0 0 0 0 0 0 0
0 0 0 0 0 0 0 0 0 0 0 0 0 0 0 0 0 0 0 0 0 0 0 0 0 0 0 0 0 0 0 0 0 0 0 0 0 0 0 0 0 0 0 0
Wind_Speed
4 3 5 4 4 4 2 3 5 2 3 6 12 15 12 11 15 17 16 16 16 15 13 11 11 9 7 4 1 4 6 7 7 6 7 7 8 7 7 7 11 12 12 13
3 5 3 1 1 1 2 5 5 1 2 6 11 16 10 9 16 17 17 17 16 15 13 12 12 10 8 4 1 4 6 7 7 6 6 6 8 7 7 7 9 11 12 13
4 5 2 2 2 2 3 4 6 6 2 4 9 7 3 3 7 12 15 15 15 15 15 14 13 11 8 4 0 2 5 6 7 8 6 6 6 7 6 9 8 11 13 13
6 2 2 2 1 3 2 1 4 5 7 3 5 6 3 2 5 9 13 15 15 14 14 13 13 11 8 4 2 1 4 6 6 7 7 10 8 9 10 9 9 12 12 13
4 2 2 2 1 2 2 1 3 3 4 4 1 6 2 2 2 3 6 11 13 13 13 13 12 10 7 5 2 1 4 5 6 7 8 9 9 8 8 10 12 12 11 12
4 2 1 1 1 1 1 3 4 4 4 3 2 5 4 1 1 2 1 3 8 11 11 12 11 9 7 5 3 1 4 4 6 7 8 9 10 11 12 12 12 11 10 10
4 3 2 1 2 3 3 5 4 3 2 3 2 6 7 2 3 5 6 4 5 9 12 13 13 10 8 6 3 2 4 4 6 7 8 8 10 11 11 12 11 12 10 11
4 4 3 1 1 1 2 4 5 5 7 6 2 6 5 1 3 4 6 5 6 10 12 13 12 10 8 5 4 2 3 4 6 7 8 8 9 7 8 11 11 11 10 11
4 3 3 2 2 2 2 2 2 4 4 7 6 5 8 4 6 8 8 7 9 12 13 13 11 9 7 6 4 2 3 4 6 7 8 8 8 9 10 11 11 10 11 11
3 3 4 3 3 3 3 4 3 2 5 7 8 7 5 5 5 5 9 10 11 12 13 13 11 10 8 6 4 3 2 4 6 7 6 6 8 9 10 10 11 12 13 13
3 4 4 4 6 5 6 4 3 2 3 5 7 7 5 8 6 7 8 8 11 14 15 13 11 10 8 6 5 3 2 4 5 6 7 8 8 9 10 9 11 12 12 13
2 4 4 3 2 2 3 4 6 4 4 5 6 10 4 7 7 8 9 7 9 13 13 13 12 10 8 7 6 4 3 4 5 6 7 7 8 9 9 10 11 12 12 13
4 5 4 4 5 4 5 5 6 3 2 5 7 10 3 5 7 9 10 8 8 12 13 12 11 10 9 8 6 5 3 4 4 6 7 7 8 9 10 10 11 11 12 13
4 6 7 5 1 6 7 8 9 9 7 8 13 17 15 12 10 9 9 9 9 12 14 14 12 11 9 8 7 5 4 3 4 5 7 7 8 9 10 10 11 11 12 12
4 6 6 7 3 4 7 10 14 15 13 12 13 13 19 16 14 10 6 7 10 13 15 15 13 11 10 9 8 6 5 4 4 5 6 7 8 9 9 10 10 11 11 12
5 5 3 6 3 5 9 15 17 17 15 17 19 21 21 16 9 7 8 9 13 15 16 15 14 12 11 10 8 7 5 4 4 5 6 7 7 8 9 10 10 11 11 12
7 6 5 4 2 5 13 14 19 13 14 14 15 15 9 6 9 10 9 12 14 15 16 16 15 13 12 10 9 7 6 4 5 5 6 6 7 8 9 10 10 11 11 11
7 5 3 4 3 10 6 3 11 11 12 16 16 15 13 11 9 9 11 12 14 14 15 16 14 12 11 10 9 7 6 5 5 5 6 6 7 8 9 10 10 11 10 10
4 5 4 3 5 11 7 7 9 10 11 14 18 19 15 2 7 9 11 13 12 13 14 14 13 12 12 11 10 8 7 6 6 6 6 6 7 8 9 10 11 11 10 11
2 3 4 4 6 10 5 5 5 4 9 7 13 15 8 3 6 6 4 9 10 10 11 12 12 12 12 11 10 9 8 7 7 6 6 7 7 8 10 11 11 10 10 11
6 7 8 8 8 13 2 8 8 6 6 4 11 11 9 11 9 0 4 8 10 12 12 13 13 12 12 11 11 9 8 8 6 5 6 7 8 8 10 10 10 10 10 11
13 12 11 9 9 14 8 12 13 8 1 3 7 9 10 13 8 4 7 9 12 13 14 14 13 12 11 12 11 10 9 7 6 5 6 7 8 7 7 9 10 9 9 10
13 13 9 14 12 4 12 12 9 4 5 6 6 8 10 11 11 10 9 11 13 14 14 14 13 13 11 12 12 11 8 7 6 6 6 7 7 7 7 8 9 8 7 7
10 5 7 10 16 11 12 15 13 12 13 13 10 9 9 13 12 12 11 12 14 15 15 14 14 14 13 13 12 10 8 8 7 6 6 6 6 7 7 6 6 6 6 7
8 10 8 12 11 9 13 18 21 18 17 18 16 14 14 14 14 13 13 14 15 15 15 15 15 15 14 14 13 11 9 9 8 6 5 5 5 6 6 5 5 6 6 7
10 13 13 14 10 11 10 6 8 13 16 16 14 14 14 15 15 14 14 14 15 16 16 16 16 15 14 14 13 12 11 10 8 6 5 4 4 4 5 5 5 5 6 10
Wind_Direction
24 84 74 57 17 7 336 290 300 344 136 238 256 268 262 207 210 223 224 221 222 222 215 196 193 188 190 198 283 345 341 345 344 341 340 336 335 331 330 330 330 329 329 328
135 83 55 27 127 210 253 282 300 286 160 260 293 285 274 228 216 224 230 228 226 223 209 197 194 191 198 202 282 335 344 343 346 343 332 325 320 318 318 322 326 327 327 324
87 85 87 145 135 235 252 288 316 316 302 226 296 279 157 172 228 235 239 240 234 225 215 200 194 193 194 194 342 345 341 337 342 340 329 323 318 319 329 332 328 327 324 319
92 107 162 166 110 312 293 326 293 293 294 313 339 315 129 160 241 234 233 232 232 225 218 202 192 189 185 163 135 328 333 333 342 340 335 336 331 330 332 329 322 322 320 318
116 125 165 198 100 284 328 325 265 260 275 276 224 290 333 124 255 226 232 231 228 220 210 196 186 177 162 148 151 312 323 329 342 342 338 333 329 327 324 324 322 324 322 320
102 117 30 69 138 240 237 215 183 201 239 262 76 305 300 121 278 272 247 249 226 210 197 184 170 160 156 155 169 276 311 329 343 341 338 334 330 329 326 328 326 326 322 322
150 153 126 202 209 175 250 296 300 290 286 360 79 273 269 335 270 275 282 280 222 196 185 175 169 170 170 176 186 249 301 332 345 340 335 332 329 326 326 327 325 325 323 324
204 173 142 146 325 358 37 335 353 324 322 322 233 262 283 250 256 259 263 265 214 193 187 181 176 174 173 178 193 240 307 337 341 335 332 326 327 324 320 323 321 320 320 322
224 160 113 72 43 310 152 104 16 283 282 279 273 273 287 202 242 239 239 231 212 197 189 184 176 175 176 180 191 238 308 331 333 328 324 321 328 325 320 319 319 319 319 320
251 195 153 134 147 58 358 134 173 245 303 299 293 275 263 286 289 234 233 229 215 197 190 184 178 176 177 178 187 214 290 322 321 318 321 318 321 321 318 316 319 320 321 322
243 226 162 189 211 191 160 163 174 178 266 278 297 287 207 261 287 275 268 240 212 196 190 184 179 176 175 179 193 209 261 301 310 315 316 317 320 319 318 317 319 320 320 323
212 251 221 181 90 355 238 204 190 223 209 229 269 273 205 241 259 260 268 258 217 197 189 182 177 175 181 189 196 206 242 285 306 309 310 314 317 318 319 319 320 320 321 323
179 224 223 181 175 186 213 201 202 198 206 215 239 262 147 231 250 252 258 256 213 192 184 180 179 183 188 192 196 203 230 273 295 300 305 310 316 320 320 320 319 320 321 322
203 243 250 272 109 166 195 191 188 188 211 224 233 263 283 283 283 279 261 243 210 192 187 186 186 188 189 193 196 201 222 256 283 293 300 307 317 320 319 318 318 320 321 323
207 250 251 271 263 236 237 213 195 209 223 237 253 259 275 289 303 301 279 225 202 195 193 193 192 189 188 191 194 199 216 242 268 285 296 306 313 315 315 316 317 319 320 321
207 241 254 265 230 226 254 238 220 225 235 245 261 272 270 281 284 264 246 217 207 203 199 196 193 189 190 191 191 194 208 228 258 276 287 295 303 306 309 311 316 318 319 319
188 206 225 255 179 275 262 229 198 203 214 212 228 245 264 260 257 261 251 218 215 207 198 195 193 191 188 186 185 190 201 215 245 265 279 288 295 301 306 309 313 317 317 316
180 194 235 273 259 244 253 115 183 208 228 219 239 260 268 273 292 278 252 230 218 205 196 193 189 184 178 175 177 183 193 216 240 259 270 279 289 295 302 308 312 315 315 314
227 208 224 235 250 272 265 183 177 201 257 220 228 250 264 326 303 267 227 219 216 200 192 186 180 173 169 172 175 182 199 214 233 251 263 274 281 288 297 303 309 314 313 309
132 211 228 212 230 246 255 141 160 165 273 223 207 236 238 169 280 303 158 195 199 187 177 170 164 163 168 172 173 188 203 213 229 245 263 274 280 285 294 302 310 312 312 309
173 193 211 220 240 264 252 135 152 193 253 184 200 222 196 206 238 281 156 182 182 175 168 164 163 169 174 170 176 195 206 215 224 242 265 274 280 288 295 300 305 308 310 312
179 179 196 188 213 251 159 156 198 226 236 195 212 218 215 229 237 205 196 185 178 173 170 169 170 173 171 173 183 199 209 209 209 235 262 274 282 288 289 299 305 309 314 316
205 200 193 196 215 274 170 206 229 291 257 237 225 226 221 235 235 216 204 193 186 181 175 175 175 173 175 181 191 203 202 193 202 229 255 273 284 287 291 300 307 314 322 321
214 206 206 234 255 247 224 242 252 245 249 259 252 240 219 231 234 214 201 193 188 185 180 177 179 182 184 187 196 205 191 186 202 228 251 270 283 292 300 303 305 313 320 321
201 176 211 240 258 287 256 234 242 249 252 257 255 242 234 233 231 212 201 195 190 186 182 181 186 190 189 186 195 197 192 190 204 223 242 262 275 288 298 304 306 310 314 323
188 188 198 236 221 220 248 222 216 232 245 245 244 246 231 223 226 209 204 196 189 186 183 185 191 192 189 186 192 192 190 192 199 213 230 251 272 288 299 306 306 297 305 325